Temp
1 1 3 1 3 3 3 3 1 1 0 0 0 0 -1 -1 -1 -2 -2 -3 -3 -4 -4 -5 -6 -6 -6 -7 -7 -6 -5 -5 -5 -5 -4 -3 -3 -2 -2 -0 -0 -0 1 1 1 1 2
2 1 0 1 2 3 3 3 2 0 0 -0 -0 -0 -1 -1 -1 -2 -2 -3 -3 -4 -4 -5 -6 -6 -6 -8 -7 -7 -7 -6 -5 -4 -4 -3 -3 -3 -2 -0 0 0 0 1 0 3 2
2 1 1 1 1 3 3 3 2 0 0 -0 -1 -0 -1 -1 -1 -2 -3 -3 -3 -4 -4 -5 -6 -6 -6 -7 -6 -6 -6 -5 -5 -5 -4 -3 -3 -3 -2 -1 -0 0 1 1 0 2 1
2 2 2 1 1 2 2 2 2 1 -0 -0 -1 -1 -1 -1 -1 -2 -3 -3 -3 -4 -4 -5 -6 -6 -8 -7 -6 -5 -6 -5 -5 -5 -4 -4 -3 -3 -2 -1 -1 -1 1 -0 1 1 1
2 2 2 2 2 2 2 2 2 1 0 -1 -1 -1 -1 -1 -1 -2 -2 -3 -4 -4 -4 -5 -5 -6 -7 -7 -7 -6 -5 -6 -5 -5 -4 -4 -3 -3 -2 -2 -1 -1 1 1 2 1 1
2 2 2 2 2 3 3 2 2 2 1 -1 -1 -1 -1 -1 -1 -2 -2 -3 -4 -4 -4 -5 -6 -6 -6 -7 -6 -6 -5 -5 -6 -5 -4 -4 -3 -3 -3 -2 0 0 2 1 3 0 0
2 2 2 2 1 3 2 2 3 2 1 -0 -1 -1 -1 -1 -1 -2 -2 -3 -4 -4 -5 -6 -6 -6 -6 -6 -6 -7 -6 -6 -6 -5 -5 -5 -3 -3 -2 -2 1 2 2 2 2 1 0
2 2 2 1 2 3 2 2 3 2 2 -0 -1 -1 -1 -1 -1 -2 -2 -3 -4 -4 -5 -6 -6 -6 -6 -6 -6 -6 -6 -6 -6 -6 -5 -4 -4 -3 -3 -2 -2 1 2 2 1 0 0
2 2 2 2 2 3 3 3 3 2 2 0 -1 -1 -2 -1 -1 -2 -2 -3 -4 -4 -5 -6 -6 -6 -6 -6 -6 -6 -6 -6 -6 -5 -4 -4 -4 -3 -3 -2 -1 1 3 1 1 0 -0
2 2 2 2 2 3 3 3 3 3 2 1 -1 -1 -2 -1 -1 -2 -2 -3 -4 -4 -4 -5 -5 -5 -6 -6 -6 -6 -6 -6 -5 -3 -4 -4 -3 -3 -2 -2 -0 0 2 2 2 0 1
2 2 2 2 2 3 3 3 3 3 2 1 -1 -1 -1 -1 -1 -2 -2 -3 -4 -4 -2 -5 -5 -5 -5 -5 -6 -6 -5 -5 -5 -5 -4 -4 -3 -3 -3 -2 -0 0 0 1 0 1 3
2 1 2 2 2 3 2 3 4 3 2 2 -0 -0 -1 -1 -1 -2 -2 -3 -3 -4 -3 -4 -5 -5 -5 -5 -5 -5 -5 -5 -5 -4 -3 -3 -3 -3 -2 -2 -1 -1 0 -0 0 1 2
1 1 2 2 2 3 2 3 4 3 2 2 0 -0 -0 -0 -1 -2 -2 -2 -3 -3 -3 -4 -4 -4 -4 -5 -4 -4 -4 -4 -4 -4 -4 -3 -3 -3 -2 -2 -1 -1 -0 -0 0 0 2
1 1 2 2 2 2 2 3 4 3 3 2 1 0 0 -0 -1 -2 -2 -2 -3 -3 -4 -3 -4 -4 -4 -4 -4 -4 -4 -4 -3 -3 -3 -3 -3 -3 -2 -2 -1 -1 1 2 1 2 3
1 1 2 2 2 1 3 3 4 4 3 2 1 1 0 -0 -1 -1 -2 -2 -3 -3 -3 -3 -3 -4 -4 -4 -4 -4 -3 -3 -3 -3 -1 -2 -3 -3 -3 -2 -1 -1 -1 -1 1 1 3
1 1 2 2 2 1 2 4 4 4 3 3 2 1 0 -0 -1 -1 -2 -2 -3 -2 -3 -3 -3 -3 -3 -3 -3 -3 -3 -3 -3 -3 -2 -2 -3 -3 -2 -2 -1 -1 -1 -0 -1 1 2
1 1 2 2 2 1 2 4 4 4 3 3 1 1 0 -0 -1 -2 -2 -3 -3 -3 -3 -4 -3 -3 -3 -3 -3 -3 -3 -3 -3 -3 -2 -2 -2 -3 -3 -2 -1 -2 -1 -1 -0 0 3
1 1 2 0 2 2 3 3 4 4 3 3 2 1 0 -0 -2 -2 -2 -3 -3 -3 -3 -3 -3 -3 -3 -3 -2 -2 -3 -3 -3 -3 -3 -2 -3 -3 -2 -3 -2 -2 -1 -0 0 1 1
1 0 1 1 1 1 3 3 4 4 3 3 2 1 1 -0 -2 -2 -3 -3 -3 -3 -3 -3 -3 -3 -3 -3 -2 -3 -3 -3 -3 -3 -3 -2 -3 -3 -3 -3 -2 -2 -2 -1 -0 -1 -1
1 0 1 1 1 1 3 3 4 4 3 3 2 1 0 -1 -2 -2 -4 -4 -4 -3 -3 -3 -3 -3 -3 -3 -3 -3 -3 -2 -3 -3 -2 -2 -2 -2 -0 -1 -1 -3 -2 -2 -2 -2 -0
1 1 1 1 1 1 3 3 4 3 3 2 2 2 0 -0 -1 -2 -3 -4 -4 -4 -3 -3 -3 -3 -3 -3 -3 -3 -3 -2 -3 -2 -2 -2 -2 -2 -2 -1 -1 -2 -3 -2 -3 -2 -1
0 0 0 1 1 1 2 3 3 3 3 3 2 2 0 -0 -1 -3 -3 -4 -4 -4 -4 -4 -4 -3 -3 -3 -3 -3 -3 -3 -3 -3 -3 -3 -2 -2 -2 -2 -2 -2 -2 -3 -3 -2 -2
0 -0 -0 0 -0 1 2 3 3 3 3 3 3 2 1 0 -1 -3 -4 -5 -4 -4 -4 -4 -3 -4 -4 -3 -3 -3 -3 -3 -3 -3 -3 -3 -3 -3 -2 -2 -2 -2 -0 -1 -1 -1 -2
-1 -0 0 1 -0 1 2 3 3 3 3 3 3 2 1 0 -1 -3 -3 -3 -4 -4 -4 -4 -4 -4 -4 -4 -4 -4 -3 -3 -3 -3 -3 -3 -3 -3 -3 -3 -2 -1 -0 -1 -1 -2 -2
-1 -0 -0 1 -2 1 2 3 3 3 3 4 3 2 1 0 -1 -2 -3 -4 -4 -5 -5 -5 -5 -5 -4 -4 -4 -4 -4 -4 -4 -3 -3 -3 -4 -4 -3 -2 -1 -1 -1 -1 -2 -1 -1
-1 -0 -0 1 0 2 2 2 3 3 3 4 3 2 1 0 -0 -2 -3 -4 -5 -5 -5 -6 -6 -5 -5 -5 -5 -4 -3 -3 -4 -4 -4 -3 -4 -4 -3 -3 -1 -2 -2 -2 -3 -2 -2
-1 0 0 -0 -0 2 2 2 3 3 3 4 3 2 1 0 -0 -2 -3 -4 -4 -5 -6 -5 -6 -5 -5 -5 -5 -4 -3 -3 -3 -3 -5 -5 -4 -4 -4 -4 -2 -3 -3 -3 -3 -2 -3
0 -0 -0 -0 0 2 2 2 2 3 3 3 2 2 1 1 -0 -1 -2 -3 -4 -5 -5 -5 -6 -6 -5 -5 -5 -5 -4 -4 -4 -3 -4 -4 -4 -4 -4 -4 -3 -3 -4 -4 -4 -4 -4
-0 -0 -1 -1 -0 1 1 2 2 2 3 3 3 2 2 1 -0 -2 -2 -3 -4 -4 -5 -5 -5 -5 -5 -5 -5 -5 -5 -5 -4 -3 -4 -4 -4 -4 -3 -3 -4 -3 -4 -4 -4 -4 -4
Height
3137 3133 3130 3126 3122 3116 3110 3106 3101 3097 3092 3088 3083 3077 3073 3069 3066 3062 3058 3053 3050 3045 3040 3035 3032 3029 3026 3025 3023 3021 3022 3025 3031 3037 3042 3049 3057 3063 3069 3076 3085 3087 3093 3097 3094 3098 3108
3135 3131 3128 3124 3120 3115 3108 3104 3099 3095 3090 3086 3081 3074 3070 3066 3063 3059 3055 3051 3048 3043 3039 3034 3031 3029 3027 3027 3025 3023 3023 3027 3031 3037 3043 3048 3055 3062 3069 3076 3082 3084 3089 3090 3095 3101 3108
3134 3130 3125 3123 3118 3112 3107 3101 3097 3092 3088 3083 3078 3073 3069 3063 3060 3056 3052 3049 3045 3042 3038 3035 3031 3030 3027 3027 3026 3026 3026 3028 3031 3036 3042 3047 3052 3059 3066 3073 3077 3081 3089 3090 3092 3097 3099
3132 3129 3124 3120 3116 3110 3104 3099 3094 3089 3085 3081 3076 3071 3066 3061 3058 3053 3050 3047 3044 3041 3038 3034 3031 3030 3029 3025 3026 3027 3028 3030 3033 3036 3039 3045 3050 3055 3062 3071 3076 3083 3091 3091 3092 3093 3098
3129 3126 3122 3118 3113 3107 3102 3097 3092 3086 3083 3078 3074 3069 3065 3059 3056 3051 3048 3045 3043 3041 3038 3034 3031 3030 3031 3027 3026 3027 3029 3031 3034 3037 3041 3046 3051 3053 3061 3067 3074 3078 3082 3087 3094 3097 3097
3125 3121 3119 3115 3110 3105 3099 3094 3089 3084 3080 3075 3071 3067 3063 3058 3054 3050 3047 3044 3042 3041 3038 3034 3032 3033 3030 3029 3027 3028 3029 3032 3035 3038 3042 3046 3050 3055 3057 3063 3066 3073 3078 3084 3088 3093 3094
3120 3118 3115 3112 3106 3101 3096 3092 3087 3081 3077 3072 3068 3064 3061 3056 3052 3048 3046 3043 3044 3042 3038 3035 3034 3031 3030 3029 3029 3030 3031 3033 3036 3039 3042 3043 3050 3051 3057 3064 3071 3075 3079 3083 3090 3090 3094
3115 3113 3111 3108 3102 3098 3093 3089 3084 3079 3074 3069 3064 3061 3058 3054 3051 3047 3044 3042 3040 3041 3039 3035 3032 3030 3029 3028 3030 3030 3032 3036 3037 3039 3042 3047 3048 3053 3060 3066 3067 3072 3078 3083 3087 3089 3094
3108 3108 3107 3104 3099 3095 3090 3086 3081 3076 3072 3067 3062 3058 3055 3052 3049 3046 3043 3042 3039 3039 3040 3037 3033 3030 3029 3031 3030 3031 3034 3036 3037 3039 3044 3047 3051 3055 3059 3063 3067 3070 3075 3082 3087 3090 3094
3102 3101 3100 3098 3095 3091 3087 3082 3077 3073 3069 3064 3059 3055 3053 3050 3049 3045 3042 3041 3039 3038 3039 3041 3035 3033 3032 3031 3031 3033 3035 3038 3038 3039 3045 3051 3052 3055 3060 3066 3070 3072 3077 3082 3086 3090 3092
3094 3093 3092 3092 3090 3087 3083 3078 3074 3070 3066 3061 3056 3053 3051 3047 3047 3044 3043 3040 3039 3039 3039 3042 3038 3035 3032 3035 3036 3035 3036 3039 3039 3038 3045 3049 3054 3056 3061 3067 3071 3075 3077 3081 3085 3089 3089
3085 3086 3087 3087 3085 3082 3079 3075 3070 3067 3063 3059 3054 3051 3049 3047 3045 3043 3041 3039 3040 3042 3041 3041 3039 3038 3037 3036 3037 3037 3038 3036 3040 3044 3047 3051 3056 3058 3062 3068 3070 3072 3078 3083 3088 3090 3089
3075 3078 3079 3078 3079 3077 3074 3071 3066 3063 3059 3057 3052 3049 3047 3045 3044 3041 3040 3040 3041 3039 3041 3042 3041 3040 3040 3040 3039 3039 3040 3040 3043 3047 3050 3055 3058 3059 3062 3067 3070 3074 3079 3085 3090 3090 3085
3064 3069 3071 3072 3073 3072 3069 3067 3063 3059 3056 3053 3050 3047 3046 3043 3042 3040 3039 3040 3040 3038 3037 3039 3040 3041 3043 3042 3041 3041 3042 3043 3046 3046 3050 3056 3062 3061 3064 3069 3072 3075 3078 3078 3078 3078 3079
3054 3058 3061 3062 3066 3066 3064 3062 3059 3056 3053 3050 3047 3045 3044 3041 3040 3039 3040 3038 3039 3038 3038 3040 3041 3043 3042 3043 3044 3043 3044 3045 3046 3050 3054 3057 3059 3061 3064 3066 3073 3073 3075 3076 3077 3076 3076
3043 3047 3052 3055 3059 3060 3058 3057 3055 3052 3050 3048 3044 3042 3041 3039 3039 3038 3038 3037 3038 3038 3037 3039 3041 3043 3043 3043 3045 3045 3046 3047 3049 3050 3053 3056 3059 3062 3065 3068 3070 3072 3076 3079 3078 3079 3075
3031 3036 3042 3048 3051 3053 3053 3052 3051 3049 3048 3045 3042 3040 3039 3037 3037 3037 3036 3036 3037 3037 3038 3041 3041 3042 3043 3043 3045 3046 3047 3047 3049 3051 3053 3056 3058 3063 3066 3066 3068 3071 3072 3075 3076 3077 3072
3020 3026 3033 3036 3043 3047 3048 3048 3047 3046 3045 3043 3040 3038 3037 3035 3036 3035 3035 3035 3036 3037 3038 3039 3040 3042 3043 3044 3046 3047 3046 3048 3049 3051 3053 3055 3056 3061 3065 3063 3065 3067 3071 3074 3075 3076 3075
3010 3017 3023 3028 3035 3040 3042 3042 3043 3043 3042 3039 3037 3035 3034 3033 3033 3033 3034 3035 3036 3037 3038 3039 3041 3042 3042 3044 3047 3046 3046 3047 3049 3051 3054 3055 3057 3061 3064 3066 3063 3064 3067 3069 3072 3072 3073
3000 3008 3015 3021 3028 3033 3036 3037 3039 3039 3039 3037 3035 3033 3031 3029 3030 3031 3032 3034 3035 3036 3037 3038 3039 3040 3042 3042 3044 3045 3046 3047 3049 3051 3053 3055 3056 3057 3058 3057 3058 3060 3062 3066 3069 3069 3070
2990 2999 3007 3012 3020 3026 3030 3032 3035 3036 3035 3035 3032 3030 3028 3026 3026 3028 3030 3032 3035 3036 3037 3038 3039 3040 3042 3043 3044 3045 3045 3046 3048 3050 3052 3054 3054 3056 3055 3055 3055 3057 3058 3060 3062 3062 3066
2981 2991 2998 3006 3013 3019 3024 3027 3030 3032 3032 3031 3029 3028 3025 3024 3024 3025 3027 3029 3033 3034 3036 3037 3038 3038 3041 3043 3042 3045 3045 3047 3048 3049 3049 3051 3052 3053 3053 3053 3054 3054 3055 3056 3057 3059 3060
2974 2984 2991 3000 3005 3011 3018 3023 3027 3029 3029 3027 3026 3024 3023 3021 3021 3023 3024 3026 3028 3031 3033 3034 3036 3038 3039 3040 3042 3043 3044 3043 3044 3048 3050 3051 3051 3052 3052 3051 3052 3052 3049 3050 3051 3053 3054
2965 2976 2981 2993 3000 3005 3012 3019 3023 3025 3025 3024 3023 3022 3020 3019 3019 3020 3021 3023 3025 3028 3029 3032 3034 3036 3038 3040 3042 3043 3043 3044 3044 3044 3047 3050 3051 3052 3051 3052 3050 3045 3045 3045 3046 3047 3047
2959 2968 2977 2986 2995 3000 3006 3014 3019 3022 3022 3021 3021 3020 3018 3016 3016 3016 3018 3020 3022 3025 3027 3028 3031 3034 3036 3038 3040 3042 3043 3046 3042 3042 3043 3046 3049 3051 3050 3049 3045 3043 3041 3043 3043 3045 3043
2952 2963 2971 2980 2989 2995 3002 3009 3015 3018 3019 3018 3018 3017 3016 3015 3014 3014 3015 3017 3020 3022 3024 3025 3028 3031 3034 3035 3038 3039 3040 3040 3043 3042 3041 3042 3046 3050 3050 3049 3045 3040 3040 3041 3041 3041 3039
2948 2959 2966 2974 2984 2992 2999 3005 3011 3015 3016 3016 3016 3015 3014 3013 3011 3012 3013 3015 3017 3019 3021 3023 3026 3029 3031 3033 3034 3038 3038 3039 3039 3040 3041 3042 3043 3045 3048 3048 3044 3041 3040 3040 3043 3044 3039
2942 2956 2962 2970 2980 2987 2995 3002 3008 3011 3014 3014 3015 3013 3014 3012 3011 3011 3012 3013 3014 3016 3018 3020 3024 3026 3029 3031 3034 3035 3036 3037 3040 3040 3041 3043 3043 3043 3044 3043 3043 3038 3039 3042 3040 3037 3037
2937 2951 2958 2967 2976 2984 2992 2999 3005 3008 3011 3012 3012 3013 3012 3013 3012 3012 3012 3013 3013 3015 3016 3018 3021 3021 3024 3028 3031 3032 3035 3036 3038 3037 3037 3041 3042 3040 3042 3040 3037 3037 3036 3036 3036 3036 3034
Wind_Speed
33 27 29 33 33 30 30 31 27 26 26 26 25 24 22 21 21 20 20 19 23 23 21 19 17 16 14 13 4 7 10 18 17 32 33 31 29 28 24 35 27 37 24 36 29 18 20
29 24 34 37 38 33 32 31 29 26 27 25 26 25 22 21 21 20 18 16 20 20 20 17 15 13 9 5 4 5 8 14 17 31 28 27 33 23 22 26 30 27 23 25 39 34 25
26 30 29 37 42 35 33 31 31 27 28 27 26 25 23 21 21 19 16 13 17 18 18 16 14 13 6 6 1 4 7 16 18 30 27 25 31 31 21 20 24 15 30 18 25 37 20
29 31 31 37 39 36 33 33 32 29 28 27 26 25 24 22 21 19 15 11 15 15 16 14 11 11 6 5 3 7 8 15 17 24 30 26 29 32 22 21 22 22 26 23 25 22 20
27 30 34 37 38 35 34 34 33 31 28 27 25 23 24 22 21 18 14 10 11 14 15 14 10 10 6 8 4 9 12 12 15 23 29 26 27 22 31 26 23 22 23 24 22 26 21
31 25 31 33 35 34 34 34 34 32 29 27 25 22 23 23 20 18 14 11 9 11 14 13 9 7 9 5 4 7 12 11 10 18 29 23 25 27 23 24 31 24 20 24 21 22 24
31 35 34 34 37 32 36 36 34 33 30 26 24 22 21 22 20 18 14 10 10 9 14 11 10 7 9 4 3 4 9 10 8 15 24 21 22 34 29 23 24 23 24 23 26 13 20
33 32 30 32 35 30 33 35 33 33 31 26 23 21 20 21 20 18 14 9 7 7 12 14 11 7 9 5 3 5 9 9 10 12 24 15 28 30 23 22 18 21 24 18 16 10 16
30 31 30 32 33 29 30 32 33 33 31 27 22 20 19 20 19 16 13 9 7 3 6 13 7 8 4 3 5 6 11 10 12 17 27 13 18 24 26 22 17 20 26 19 15 14 17
32 30 33 30 31 28 28 30 32 33 30 27 21 19 18 19 16 14 12 9 5 1 2 10 12 6 8 11 7 11 11 9 9 22 19 15 18 24 25 18 16 17 20 18 14 16 11
35 31 29 29 32 27 26 30 31 32 30 27 20 18 16 17 15 12 11 8 2 4 1 6 8 12 10 12 10 7 10 9 14 7 11 14 14 26 19 19 15 18 16 14 12 14 8
35 32 30 32 31 28 26 29 29 31 28 26 18 17 16 16 15 11 10 6 3 2 1 2 6 6 6 8 7 5 6 7 12 13 12 13 13 13 22 17 10 13 19 10 9 10 11
38 31 31 28 30 25 28 28 27 30 27 24 17 16 16 16 13 10 9 2 2 2 6 3 2 8 8 9 7 4 10 18 11 11 13 12 18 7 17 18 13 19 22 8 6 5 6
38 32 33 30 29 23 27 24 24 29 25 22 16 15 16 14 12 9 6 2 1 2 5 6 6 8 4 2 2 4 5 7 13 9 16 10 8 12 18 16 11 19 24 6 5 7 11
41 33 28 29 26 23 22 21 22 26 22 20 15 15 14 12 11 7 2 2 2 4 8 8 6 4 4 4 2 4 4 9 8 15 5 9 4 17 22 19 15 18 13 4 1 5 1
43 37 29 29 26 23 21 19 20 22 19 17 14 13 11 10 9 6 0 2 4 8 8 9 3 4 3 4 6 3 7 8 12 11 11 5 7 18 25 16 17 13 12 5 1 4 5
43 38 32 33 23 24 20 17 17 19 15 14 13 13 10 11 8 3 1 3 7 9 7 5 2 4 4 8 6 4 2 9 11 11 7 10 8 11 21 14 15 14 10 8 3 2 3
45 41 36 30 28 23 19 17 15 16 13 12 13 11 12 10 5 2 1 5 7 9 6 4 5 4 5 7 6 3 3 5 18 12 6 9 5 9 12 15 18 20 16 16 12 6 8
44 43 38 32 25 23 19 16 13 13 11 11 12 14 10 7 2 2 3 6 9 8 6 7 6 4 6 6 4 3 6 7 16 11 7 8 5 6 5 8 17 23 18 13 16 13 7
46 43 39 30 27 23 18 16 13 11 10 9 11 9 10 8 6 5 7 8 8 8 8 8 10 8 5 5 5 6 5 8 18 12 10 8 7 6 5 1 7 19 23 21 19 11 17
48 45 38 33 26 21 17 16 13 11 9 8 10 9 10 8 6 6 9 9 10 9 7 9 9 10 6 5 4 3 6 8 13 16 15 10 7 10 8 6 6 10 15 23 25 30 18
43 43 43 38 25 21 17 16 15 12 9 9 10 11 11 11 9 7 10 13 12 12 10 9 7 13 12 5 7 5 4 5 4 11 14 13 7 9 10 10 9 12 10 12 21 24 24
45 45 41 36 29 24 18 17 15 11 8 7 7 8 9 7 6 8 10 12 16 14 13 11 11 7 9 14 11 7 8 9 7 5 11 12 13 8 5 9 8 12 18 18 19 21 18
48 44 40 41 34 27 19 19 16 11 8 4 3 6 7 7 6 10 9 14 14 17 15 14 13 11 10 10 9 8 8 7 8 9 10 8 12 11 4 4 4 7 12 12 14 16 16
46 45 41 38 29 26 21 20 16 11 7 3 1 3 5 6 7 9 11 13 15 15 17 15 13 12 11 11 9 5 5 5 9 10 11 10 6 3 4 8 12 12 13 12 11 11 16
42 41 37 35 33 26 24 22 17 11 9 4 3 1 2 4 6 7 10 13 14 15 14 17 15 13 10 15 11 10 8 7 5 5 16 13 13 8 4 5 4 2 6 4 3 9 10
43 45 37 34 30 29 26 23 17 13 9 6 5 4 3 2 4 7 9 11 12 14 13 13 15 15 13 15 16 8 9 8 5 6 5 11 11 15 13 7 9 10 13 11 4 2 6
41 43 37 35 35 29 28 24 19 15 11 8 6 6 8 7 8 7 6 7 9 10 10 9 13 18 14 12 12 6 5 7 6 5 4 8 7 9 11 7 9 10 9 7 4 8 10
45 44 39 36 39 32 31 25 21 16 11 10 9 10 11 7 14 13 11 9 9 9 10 9 7 9 16 15 10 8 4 2 5 4 9 7 9 4 8 4 10 6 7 9 10 11 13
Wind_Direction
329 332 341 341 335 335 333 332 336 336 339 341 340 336 324 324 329 325 326 324 328 330 337 335 333 335 328 349 338 221 203 169 182 183 179 194 188 186 193 202 211 221 214 222 216 191 207
331 330 331 329 333 330 330 330 331 334 334 339 338 339 327 327 329 328 327 324 330 333 339 333 334 335 336 2 346 102 150 169 179 184 179 186 193 183 193 204 209 214 216 231 219 223 216
326 330 320 319 324 329 326 329 329 331 332 339 336 341 334 331 332 328 325 322 330 338 343 342 339 338 329 290 258 186 152 180 183 182 185 183 183 191 176 193 200 208 207 224 228 219 189
309 314 324 318 319 322 326 328 328 328 332 336 335 339 339 332 335 330 323 319 332 341 341 339 341 343 323 299 234 199 162 183 189 187 190 180 182 192 179 185 194 196 201 206 214 223 204
299 306 308 316 316 315 323 327 327 326 331 334 333 338 340 337 337 333 325 314 329 348 343 342 350 355 305 314 233 181 184 173 194 192 192 187 182 188 173 187 187 193 199 204 205 213 213
298 304 299 311 320 315 322 326 325 325 330 332 332 334 336 342 336 337 331 314 318 350 352 351 360 7 326 308 242 195 192 177 180 199 202 184 190 189 197 184 190 187 193 201 205 210 212
293 295 302 305 314 311 320 322 323 324 329 332 333 332 330 335 338 339 333 324 323 335 349 345 328 345 327 255 204 191 187 173 174 192 204 211 193 200 198 192 202 202 197 199 211 197 207
286 289 295 302 310 309 316 318 321 323 330 333 333 332 332 333 339 337 335 329 321 324 338 354 345 345 344 181 191 226 178 159 185 190 196 179 194 201 193 203 220 200 193 192 199 205 215
279 279 290 295 306 312 316 317 320 322 328 332 334 332 336 337 336 336 338 339 328 325 360 6 28 28 66 117 149 172 163 180 203 197 189 167 204 204 188 192 192 203 192 179 189 201 200
271 270 278 287 300 305 315 318 319 320 326 330 336 333 337 342 335 341 343 344 340 114 41 357 22 34 44 47 91 138 159 184 199 180 189 181 192 174 175 181 186 181 185 193 191 178 205
259 269 278 273 294 297 313 316 317 318 324 329 340 339 341 345 336 340 345 345 34 97 355 7 27 50 94 104 127 152 139 159 199 183 132 174 178 166 169 173 174 190 175 169 177 201 244
251 259 271 271 287 288 308 311 314 315 323 327 339 346 346 344 334 333 346 349 98 101 134 78 42 68 90 96 109 120 175 150 131 124 119 153 179 168 160 164 176 164 160 155 187 219 243
247 249 258 269 283 283 299 304 310 311 322 324 332 342 343 344 340 337 345 340 84 303 164 126 98 108 115 108 106 70 133 131 139 136 140 140 160 165 160 151 145 155 161 150 184 206 237
245 243 253 261 276 280 287 298 304 308 320 322 327 338 342 346 340 335 344 116 212 186 169 143 125 139 134 105 112 116 105 111 151 161 141 153 187 165 177 171 173 176 176 169 193 196 203
240 236 249 249 265 277 283 293 299 306 317 322 324 332 338 343 345 342 342 132 203 154 134 148 144 127 159 209 141 111 157 134 139 154 168 165 161 183 174 183 171 183 197 187 0 42 182
235 230 236 246 255 272 280 285 295 302 314 318 321 330 332 340 347 341 324 196 175 162 152 145 217 209 177 193 152 164 172 191 166 180 149 159 136 180 180 176 187 191 194 188 162 180 216
229 224 229 237 243 264 274 277 289 295 306 312 319 325 329 329 341 358 249 206 170 170 168 156 197 173 189 169 171 176 191 182 176 172 164 165 164 168 184 200 193 188 192 206 218 237 301
227 228 227 231 237 255 267 267 279 285 296 304 308 318 321 316 318 332 198 182 176 173 179 155 145 140 161 166 162 166 186 186 179 154 153 162 139 158 192 229 210 206 222 218 223 211 235
228 226 227 230 230 249 257 257 265 273 286 303 306 311 303 300 271 279 205 184 179 184 191 164 157 150 155 170 167 148 157 182 181 157 163 179 139 130 217 251 233 228 222 217 229 246 212
231 224 224 224 227 235 244 247 246 257 276 301 307 298 296 288 263 206 205 200 191 186 189 178 173 170 155 164 160 192 181 182 195 190 183 191 183 213 224 170 197 221 221 222 224 225 229
223 223 229 213 218 232 230 234 231 245 268 292 304 296 292 276 268 226 209 205 193 194 197 183 187 189 187 197 176 167 199 198 203 216 220 214 224 219 229 240 234 241 228 221 224 233 240
221 214 221 212 215 225 221 223 221 240 263 284 291 289 285 278 268 230 220 213 194 205 192 200 183 209 201 193 187 189 169 179 210 222 219 218 234 233 244 252 258 262 245 229 230 241 246
220 214 216 214 204 213 207 209 216 229 250 281 292 289 281 285 253 213 221 217 209 204 204 205 202 192 191 216 218 219 216 208 189 216 217 217 230 216 227 239 261 274 252 245 241 249 247
206 214 207 215 198 204 194 202 211 219 239 259 293 293 276 275 237 225 219 215 207 204 207 206 200 194 207 203 204 211 219 225 222 208 199 216 225 224 233 182 231 242 251 244 238 246 254
202 212 210 212 184 203 188 194 203 212 219 210 322 293 265 261 242 234 208 208 207 208 211 211 206 206 208 195 186 190 196 237 229 226 221 212 206 233 243 233 276 277 259 258 257 267 269
192 211 218 207 183 194 186 188 190 207 190 146 85 24 243 240 221 225 205 202 202 207 210 217 209 203 200 197 189 212 206 207 210 231 222 218 212 240 220 269 262 272 257 244 280 289 266
192 207 201 204 185 189 182 180 188 186 174 134 107 97 147 160 164 184 190 195 201 199 205 214 210 202 204 212 211 222 217 199 213 214 220 202 213 225 235 252 271 266 264 275 256 194 248
194 205 213 207 180 183 179 179 184 175 164 132 118 118 107 107 123 138 138 159 176 183 187 193 196 212 204 190 202 208 236 221 240 244 212 211 214 218 229 236 258 261 255 219 224 253 270
196 209 215 205 176 180 178 178 182 167 155 134 126 123 112 122 111 110 113 120 137 142 167 174 184 194 198 200 206 201 214 237 226 244 240 231 227 232 217 227 249 238 226 227 251 272 282